MTJ200 EGLL-EDDF

Flight info

Callsign MTJ200
Flight time 1h 6m
Altitude 33000
Route DET L6 DVR UL9 KONAN UL607 SPI T180 NIVNU T847 IMCOM
Aircraft CL60/M-SBDE1E2E3FGHIJ1J4J5J7M3RWXYZ/LB1V1D1

Departure

Time 2026-05-05 10:48
Airport London Heathrow Airport (EGLL)

Arrival

Time 2026-05-05 11:55
Airport Frankfurt Main Airport (EDDF)
Time Latitude Longitude Altitude Speed Heading
2026-05-05 10:20 51.46251 -0.46067 85 ft 0 kts 360°
2026-05-05 10:39 51.46252 -0.46067 85 ft 0 kts 360°
2026-05-05 10:40 51.46274 -0.46068 84 ft 5 kts
2026-05-05 10:40 51.46320 -0.46103 83 ft 9 kts 287°
2026-05-05 10:40 51.46321 -0.46193 83 ft 9 kts 270°
2026-05-05 10:40 51.46324 -0.46311 83 ft 11 kts 271°
2026-05-05 10:41 51.46320 -0.46435 83 ft 11 kts 270°
2026-05-05 10:41 51.46321 -0.46576 82 ft 13 kts 268°
2026-05-05 10:41 51.46322 -0.46734 80 ft 14 kts 271°
2026-05-05 10:41 51.46322 -0.46908 78 ft 14 kts 270°
2026-05-05 10:42 51.46321 -0.46981 77 ft 9 kts 269°
2026-05-05 10:42 51.46321 -0.47106 77 ft 11 kts 269°
2026-05-05 10:42 51.46320 -0.47245 78 ft 10 kts 268°
2026-05-05 10:43 51.46328 -0.47370 80 ft 12 kts 286°
2026-05-05 10:43 51.46336 -0.47517 80 ft 13 kts 270°
2026-05-05 10:43 51.46320 -0.47675 79 ft 14 kts 246°
2026-05-05 10:43 51.46272 -0.47819 77 ft 16 kts 242°
2026-05-05 10:44 51.46251 -0.47978 76 ft 13 kts 271°
2026-05-05 10:44 51.46251 -0.48137 76 ft 14 kts 271°
2026-05-05 10:44 51.46253 -0.48310 76 ft 16 kts 270°
2026-05-05 10:44 51.46249 -0.48471 76 ft 12 kts 270°
2026-05-05 10:45 51.46251 -0.48581 76 ft 9 kts 281°
2026-05-05 10:45 51.46274 -0.48661 76 ft 6 kts 307°
2026-05-05 10:45 51.46285 -0.48679 76 ft 0 kts 314°
2026-05-05 10:46 51.46285 -0.48680 76 ft 1 kts 314°
2026-05-05 10:46 51.46307 -0.48710 76 ft 6 kts 324°
2026-05-05 10:46 51.46361 -0.48747 76 ft 10 kts 349°
2026-05-05 10:46 51.46439 -0.48749 76 ft 12 kts 11°
2026-05-05 10:47 51.46477 -0.48651 76 ft 0 kts 90°
2026-05-05 10:47 51.46477 -0.48649 76 ft 2 kts 90°
2026-05-05 10:47 51.46478 -0.48302 76 ft 75 kts 90°
2026-05-05 10:47 51.46483 -0.46949 141 ft 157 kts 90°
2026-05-05 10:48 51.46466 -0.44943 624 ft 200 kts 87°
2026-05-05 10:48 51.46498 -0.42614 1561 ft 221 kts 86°
2026-05-05 10:48 51.46355 -0.40138 2639 ft 236 kts 106°
2026-05-05 10:48 51.45538 -0.37852 3742 ft 249 kts 121°
2026-05-05 10:49 51.44573 -0.35419 4605 ft 268 kts 118°
2026-05-05 10:49 51.43725 -0.32775 5435 ft 271 kts 112°
2026-05-05 10:49 51.43051 -0.29949 5855 ft 273 kts 105°
2026-05-05 10:49 51.42588 -0.26987 5972 ft 272 kts 101°
2026-05-05 10:50 51.42191 -0.24068 5981 ft 276 kts 101°
2026-05-05 10:50 51.41761 -0.20920 6815 ft 299 kts 101°
2026-05-05 10:50 51.41331 -0.17803 8583 ft 290 kts 101°
2026-05-05 10:50 51.40907 -0.14727 10099 ft 289 kts 101°
2026-05-05 10:51 51.40465 -0.11514 10926 ft 314 kts 101°
2026-05-05 10:51 51.39977 -0.07970 11569 ft 341 kts 101°
2026-05-05 10:51 51.39451 -0.04179 12533 ft 354 kts 101°
2026-05-05 10:51 51.38918 -0.00346 13634 ft 360 kts 101°
2026-05-05 10:52 51.38373 0.03557 14735 ft 365 kts 102°
2026-05-05 10:52 51.37822 0.07490 15749 ft 371 kts 102°
2026-05-05 10:52 51.37257 0.11516 16749 ft 376 kts 102°
2026-05-05 10:52 51.36685 0.15584 17526 ft 385 kts 103°
2026-05-05 10:53 51.36088 0.19813 18284 ft 392 kts 103°
2026-05-05 10:53 51.35492 0.24033 19301 ft 393 kts 103°
2026-05-05 10:53 51.34891 0.28266 20233 ft 395 kts 103°
2026-05-05 10:53 51.34285 0.32530 21076 ft 399 kts 103°
2026-05-05 10:54 51.33668 0.36860 21856 ft 404 kts 103°
2026-05-05 10:54 51.33044 0.41224 22614 ft 408 kts 104°
2026-05-05 10:54 51.32404 0.45691 23368 ft 412 kts 104°
2026-05-05 10:54 51.31766 0.50131 24080 ft 416 kts 104°
2026-05-05 10:55 51.31113 0.54665 24780 ft 420 kts 104°
2026-05-05 10:55 51.30435 0.59286 25449 ft 425 kts 105°
2026-05-05 10:55 51.29648 0.63822 26088 ft 427 kts 107°
2026-05-05 10:55 51.28807 0.68415 26682 ft 431 kts 108°
2026-05-05 10:56 51.27958 0.73046 27236 ft 435 kts 108°
2026-05-05 10:56 51.27103 0.77701 27784 ft 438 kts 108°
2026-05-05 10:56 51.26248 0.82348 28292 ft 441 kts 108°
2026-05-05 10:56 51.25380 0.87056 28782 ft 444 kts 108°
2026-05-05 10:57 51.24503 0.91797 28939 ft 451 kts 109°
2026-05-05 10:57 51.22710 1.01460 28948 ft 449 kts 108°
2026-05-05 10:58 51.20939 1.10957 28951 ft 444 kts 108°
2026-05-05 10:58 51.19175 1.20371 28947 ft 444 kts 108°
2026-05-05 10:59 51.17440 1.29787 28943 ft 445 kts 104°
2026-05-05 10:59 51.16807 1.39616 28953 ft 453 kts 96°
2026-05-05 10:59 51.16543 1.44651 29258 ft 458 kts 96°
2026-05-05 11:00 51.16275 1.49692 29781 ft 457 kts 97°
2026-05-05 11:00 51.16006 1.54720 30245 ft 458 kts 96°
2026-05-05 11:00 51.15731 1.59786 30610 ft 460 kts 97°
2026-05-05 11:00 51.15454 1.64851 30969 ft 462 kts 97°
2026-05-05 11:01 51.15172 1.69960 31372 ft 461 kts 98°
2026-05-05 11:01 51.14890 1.75012 31803 ft 459 kts 97°
2026-05-05 11:01 51.14607 1.80039 32157 ft 459 kts 98°
2026-05-05 11:01 51.14320 1.85105 32538 ft 459 kts 98°
2026-05-05 11:02 51.14030 1.90148 32859 ft 460 kts 98°
2026-05-05 11:02 51.13437 2.00344 32927 ft 473 kts 98°
2026-05-05 11:03 51.12813 2.10889 32929 ft 482 kts 98°
2026-05-05 11:03 51.12175 2.21520 32934 ft 486 kts 98°
2026-05-05 11:04 51.11525 2.32189 32928 ft 486 kts 98°
2026-05-05 11:04 51.10867 2.42817 32929 ft 484 kts 98°
2026-05-05 11:05 51.10199 2.53452 32924 ft 484 kts 98°
2026-05-05 11:05 51.09473 2.64034 32925 ft 482 kts 102°
2026-05-05 11:06 51.07828 2.74295 32920 ft 479 kts 109°
2026-05-05 11:06 51.05983 2.84435 32918 ft 479 kts 109°
2026-05-05 11:07 51.04144 2.94500 32916 ft 479 kts 110°
2026-05-05 11:07 51.02277 3.04666 32918 ft 479 kts 110°
2026-05-05 11:08 51.00418 3.14742 32911 ft 479 kts 110°
2026-05-05 11:08 50.98542 3.24853 32908 ft 480 kts 109°
2026-05-05 11:09 50.96656 3.34971 32901 ft 480 kts 110°
2026-05-05 11:09 50.94759 3.45089 32901 ft 480 kts 109°
2026-05-05 11:10 50.92842 3.55265 32901 ft 480 kts 109°
2026-05-05 11:10 50.90940 3.65294 32892 ft 480 kts 110°
2026-05-05 11:11 50.88990 3.75425 32891 ft 480 kts 111°
2026-05-05 11:11 50.87048 3.85466 32886 ft 481 kts 111°
2026-05-05 11:12 50.85090 3.95531 32883 ft 481 kts 110°
2026-05-05 11:12 50.83126 4.05578 32884 ft 481 kts 111°
2026-05-05 11:13 50.81142 4.15673 32884 ft 482 kts 111°
2026-05-05 11:13 50.79157 4.25723 32888 ft 481 kts 111°
2026-05-05 11:14 50.77161 4.35773 32890 ft 481 kts 111°
2026-05-05 11:14 50.75159 4.45806 32892 ft 481 kts 111°
2026-05-05 11:15 50.73144 4.55851 32887 ft 482 kts 111°
2026-05-05 11:15 50.71154 4.65941 32883 ft 482 kts 111°
2026-05-05 11:16 50.69214 4.75956 32877 ft 482 kts 111°
2026-05-05 11:16 50.67241 4.86081 32876 ft 482 kts 111°
2026-05-05 11:17 50.65255 4.96063 32872 ft 482 kts 112°
2026-05-05 11:17 50.63199 5.06077 32868 ft 482 kts 112°
2026-05-05 11:18 50.61133 5.16089 32866 ft 482 kts 112°
2026-05-05 11:18 50.59065 5.26065 32869 ft 482 kts 112°
2026-05-05 11:19 50.56989 5.36029 32874 ft 481 kts 112°
2026-05-05 11:19 50.54888 5.46064 32874 ft 481 kts 112°
2026-05-05 11:20 50.52800 5.55988 32870 ft 482 kts 112°
2026-05-05 11:20 50.50776 5.65971 32862 ft 483 kts 111°
2026-05-05 11:21 50.48897 5.76062 32858 ft 483 kts 111°
2026-05-05 11:21 50.47016 5.86104 32300 ft 471 kts 110°
2026-05-05 11:21 50.46108 5.90947 31823 ft 458 kts 110°
2026-05-05 11:22 50.45222 5.95648 31355 ft 446 kts 110°
2026-05-05 11:22 50.44350 6.00270 30894 ft 436 kts 110°
2026-05-05 11:22 50.43494 6.04790 30426 ft 430 kts 110°
2026-05-05 11:22 50.42652 6.09219 29970 ft 428 kts 110°
2026-05-05 11:23 50.41800 6.13683 29487 ft 426 kts 110°
2026-05-05 11:23 50.40953 6.18111 29020 ft 424 kts 110°
2026-05-05 11:23 50.40110 6.22516 28547 ft 422 kts 110°
2026-05-05 11:23 50.39270 6.26892 28082 ft 419 kts 109°
2026-05-05 11:24 50.38436 6.31224 27618 ft 416 kts 110°
2026-05-05 11:24 50.37607 6.35519 27172 ft 414 kts 109°
2026-05-05 11:24 50.36780 6.39782 26713 ft 411 kts 109°
2026-05-05 11:24 50.36215 6.44162 26264 ft 412 kts 99°
2026-05-05 11:25 50.35954 6.48623 25799 ft 410 kts 98°
2026-05-05 11:25 50.35688 6.52994 25353 ft 407 kts 98°
2026-05-05 11:25 50.35414 6.57362 24906 ft 404 kts 98°
2026-05-05 11:25 50.35140 6.61717 24457 ft 401 kts 98°
2026-05-05 11:26 50.34866 6.66032 24023 ft 398 kts 98°
2026-05-05 11:26 50.34591 6.70334 23588 ft 395 kts 98°
2026-05-05 11:26 50.34320 6.74555 23170 ft 393 kts 98°
2026-05-05 11:26 50.34055 6.78805 22728 ft 390 kts 98°
2026-05-05 11:27 50.33792 6.83032 22290 ft 388 kts 98°
2026-05-05 11:27 50.33286 6.87121 21874 ft 381 kts 112°
2026-05-05 11:27 50.32243 6.90855 21460 ft 378 kts 117°
2026-05-05 11:27 50.31122 6.94582 21018 ft 376 kts 117°
2026-05-05 11:28 50.30033 6.98224 20651 ft 373 kts 117°
2026-05-05 11:28 50.28937 7.01890 20225 ft 372 kts 117°
2026-05-05 11:28 50.27853 7.05516 19820 ft 369 kts 117°
2026-05-05 11:28 50.26769 7.09139 19393 ft 367 kts 117°
2026-05-05 11:29 50.25701 7.12703 19002 ft 364 kts 117°
2026-05-05 11:29 50.24630 7.16275 18594 ft 361 kts 117°
2026-05-05 11:29 50.23571 7.19799 18196 ft 359 kts 117°
2026-05-05 11:29 50.22516 7.23306 17801 ft 357 kts 117°
2026-05-05 11:30 50.21469 7.26780 17407 ft 355 kts 117°
2026-05-05 11:30 50.20425 7.30242 17019 ft 353 kts 117°
2026-05-05 11:30 50.19430 7.33760 16616 ft 352 kts 113°
2026-05-05 11:30 50.18588 7.37272 16245 ft 351 kts 112°
2026-05-05 11:31 50.17742 7.40822 15840 ft 349 kts 112°
2026-05-05 11:31 50.16904 7.44330 15473 ft 347 kts 112°
2026-05-05 11:31 50.16062 7.47852 15097 ft 344 kts 111°
2026-05-05 11:31 50.15234 7.51308 14691 ft 342 kts 111°
2026-05-05 11:32 50.14399 7.54787 14331 ft 341 kts 111°
2026-05-05 11:32 50.13576 7.58210 13939 ft 338 kts 111°
2026-05-05 11:32 50.12756 7.61619 13576 ft 337 kts 111°
2026-05-05 11:32 50.11945 7.64987 13210 ft 335 kts 111°
2026-05-05 11:33 50.11084 7.68350 12833 ft 333 kts 118°
2026-05-05 11:33 50.09850 7.71371 12547 ft 329 kts 126°
2026-05-05 11:33 50.08557 7.74252 12402 ft 330 kts 126°
2026-05-05 11:33 50.07237 7.77211 12170 ft 330 kts 126°
2026-05-05 11:34 50.05932 7.80136 11952 ft 329 kts 126°
2026-05-05 11:34 50.04641 7.83029 11728 ft 327 kts 126°
2026-05-05 11:34 50.03350 7.85918 11556 ft 327 kts 126°
2026-05-05 11:34 50.02063 7.88797 11295 ft 326 kts 126°
2026-05-05 11:35 50.00848 7.91774 11066 ft 325 kts 117°
2026-05-05 11:35 50.00208 7.95098 10839 ft 324 kts 98°
2026-05-05 11:35 50.00313 7.98605 10851 ft 328 kts 79°
2026-05-05 11:35 50.01033 8.01995 10827 ft 330 kts 70°
2026-05-05 11:36 50.01850 8.05311 10847 ft 330 kts 71°
2026-05-05 11:36 50.02661 8.08637 10836 ft 330 kts 70°
2026-05-05 11:36 50.03467 8.11945 10875 ft 330 kts 71°
2026-05-05 11:36 50.04278 8.15282 10857 ft 330 kts 71°
2026-05-05 11:37 50.05090 8.18627 10859 ft 329 kts 70°
2026-05-05 11:37 50.05893 8.21935 10859 ft 330 kts 71°
2026-05-05 11:37 50.06703 8.25282 10855 ft 329 kts 70°
2026-05-05 11:37 50.07505 8.28600 10853 ft 330 kts 70°
2026-05-05 11:38 50.08310 8.31936 10852 ft 329 kts 71°
2026-05-05 11:38 50.09112 8.35264 10652 ft 332 kts 71°
2026-05-05 11:38 50.09915 8.38598 10324 ft 328 kts 70°
2026-05-05 11:38 50.10714 8.41925 9993 ft 325 kts 71°
2026-05-05 11:39 50.11488 8.45150 9677 ft 315 kts 71°
2026-05-05 11:39 50.12246 8.48311 9359 ft 305 kts 71°
2026-05-05 11:39 50.12966 8.51318 9047 ft 296 kts 71°
2026-05-05 11:39 50.13676 8.54289 8726 ft 288 kts 71°
2026-05-05 11:40 50.14365 8.57179 8399 ft 283 kts 71°
2026-05-05 11:40 50.15048 8.60047 8026 ft 284 kts 70°
2026-05-05 11:40 50.15736 8.62938 7647 ft 284 kts 70°
2026-05-05 11:40 50.16419 8.65816 7275 ft 283 kts 71°
2026-05-05 11:41 50.17091 8.68648 6995 ft 279 kts 71°
2026-05-05 11:41 50.17760 8.71467 6756 ft 280 kts 71°
2026-05-05 11:41 50.18437 8.74320 6530 ft 279 kts 71°
2026-05-05 11:41 50.19103 8.77130 6245 ft 272 kts 70°
2026-05-05 11:42 50.19743 8.79841 6005 ft 265 kts 70°
2026-05-05 11:42 50.20376 8.82528 5728 ft 265 kts 70°
2026-05-05 11:42 50.21009 8.85220 5351 ft 266 kts 70°
2026-05-05 11:42 50.21643 8.87918 4974 ft 263 kts 70°
2026-05-05 11:43 50.22263 8.90563 4606 ft 261 kts 70°
2026-05-05 11:43 50.22880 8.93195 4236 ft 259 kts 70°
2026-05-05 11:43 50.23493 8.95812 3987 ft 250 kts 69°
2026-05-05 11:43 50.24078 8.98317 3967 ft 243 kts 69°
2026-05-05 11:44 50.24656 9.00788 3972 ft 246 kts 69°
2026-05-05 11:44 50.25243 9.03305 3975 ft 246 kts 69°
2026-05-05 11:44 50.25831 9.05826 3983 ft 247 kts 69°
2026-05-05 11:44 50.26419 9.08351 3985 ft 247 kts 69°
2026-05-05 11:45 50.27003 9.10866 3983 ft 247 kts 69°
2026-05-05 11:45 50.27549 9.13401 3981 ft 246 kts 78°
2026-05-05 11:45 50.27435 9.16006 3992 ft 243 kts 110°
2026-05-05 11:45 50.26404 9.18048 3987 ft 245 kts 144°
2026-05-05 11:46 50.24790 9.18826 3986 ft 245 kts 180°
2026-05-05 11:46 50.23202 9.18048 3987 ft 244 kts 214°
2026-05-05 11:46 50.21930 9.16330 3985 ft 243 kts 223°
2026-05-05 11:46 50.20681 9.14515 3980 ft 242 kts 224°
2026-05-05 11:47 50.19453 9.12731 3980 ft 242 kts 224°
2026-05-05 11:47 50.18229 9.10950 3983 ft 242 kts 224°
2026-05-05 11:47 50.16996 9.09157 3983 ft 242 kts 224°
2026-05-05 11:47 50.15811 9.07293 3967 ft 238 kts 233°
2026-05-05 11:48 50.14433 9.02663 3961 ft 238 kts 249°
2026-05-05 11:48 50.13842 9.00245 3964 ft 239 kts 250°
2026-05-05 11:48 50.13256 8.97817 3964 ft 238 kts 251°
2026-05-05 11:49 50.12686 8.95406 3966 ft 238 kts 250°
2026-05-05 11:49 50.12117 8.92986 3967 ft 239 kts 251°
2026-05-05 11:49 50.11544 8.90553 3971 ft 238 kts 250°
2026-05-05 11:49 50.10987 8.88180 3974 ft 233 kts 250°
2026-05-05 11:50 50.10428 8.85803 3891 ft 233 kts 250°
2026-05-05 11:50 50.09877 8.83459 3599 ft 230 kts 251°
2026-05-05 11:50 50.09335 8.81158 3316 ft 221 kts 251°
2026-05-05 11:50 50.08820 8.78974 3037 ft 209 kts 251°
2026-05-05 11:51 50.08335 8.76920 2772 ft 199 kts 251°
2026-05-05 11:51 50.07863 8.74923 2514 ft 191 kts 251°
2026-05-05 11:51 50.07438 8.73125 2292 ft 163 kts 251°
2026-05-05 11:51 50.07066 8.71556 2089 ft 152 kts 251°
2026-05-05 11:52 50.06705 8.70030 1875 ft 148 kts 251°
2026-05-05 11:52 50.06358 8.68561 1695 ft 142 kts 250°
2026-05-05 11:52 50.06020 8.67135 1509 ft 139 kts 250°
2026-05-05 11:52 50.05687 8.65732 1328 ft 138 kts 250°
2026-05-05 11:53 50.05358 8.64347 1154 ft 132 kts 250°
2026-05-05 11:53 50.05044 8.63023 982 ft 130 kts 250°
2026-05-05 11:53 50.04731 8.61709 812 ft 129 kts 250°
2026-05-05 11:53 50.04439 8.60467 620 ft 120 kts 249°
2026-05-05 11:54 50.04135 8.59201 454 ft 132 kts 248°
2026-05-05 11:54 50.03817 8.57889 364 ft 121 kts 250°
2026-05-05 11:54 50.03590 8.56929 345 ft 64 kts 250°
2026-05-05 11:54 50.03445 8.56323 342 ft 57 kts 249°
2026-05-05 11:55 50.03316 8.55805 339 ft 33 kts 249°
2026-05-05 11:55 50.03225 8.55571 336 ft 23 kts 227°
2026-05-05 11:55 50.03154 8.55471 337 ft 0 kts 221°
2026-05-05 11:56 50.03110 8.55422 337 ft 9 kts 219°
2026-05-05 11:56 50.03036 8.55318 336 ft 17 kts 226°
2026-05-05 11:56 50.02981 8.55166 336 ft 14 kts 250°
2026-05-05 11:56 50.02943 8.55010 334 ft 14 kts 250°
2026-05-05 11:57 50.02908 8.54864 335 ft 12 kts 250°
2026-05-05 11:57 50.02876 8.54730 335 ft 14 kts 250°
2026-05-05 11:57 50.02839 8.54571 336 ft 15 kts 250°
2026-05-05 11:57 50.02800 8.54404 337 ft 17 kts 250°
2026-05-05 11:58 50.02753 8.54207 336 ft 20 kts 249°
2026-05-05 11:58 50.02705 8.54014 335 ft 20 kts 250°
2026-05-05 11:58 50.02654 8.53803 335 ft 22 kts 249°
2026-05-05 11:58 50.02577 8.53655 334 ft 18 kts 216°
2026-05-05 11:59 50.02502 8.53507 336 ft 17 kts 250°
2026-05-05 11:59 50.02461 8.53311 333 ft 19 kts 247°
2026-05-05 11:59 50.02406 8.53110 334 ft 18 kts 250°
2026-05-05 11:59 50.02363 8.52930 332 ft 15 kts 249°
2026-05-05 12:00 50.02290 8.52848 332 ft 14 kts 197°
2026-05-05 12:00 50.02190 8.52832 332 ft 10 kts 177°
2026-05-05 12:00 50.02146 8.52882 333 ft 8 kts 97°
2026-05-05 12:00 50.02152 8.52982 335 ft 9 kts 84°
2026-05-05 12:01 50.02163 8.53070 337 ft 5 kts 54°
2026-05-05 12:01 50.02205 8.53101 336 ft 8 kts 358°
2026-05-05 12:01 50.02249 8.53080 335 ft 0 kts 340°